Regional Weather Roundup
Issued by NWS

Home | Current Version | Previous Version | Text Only | Print | Product List | Glossary Off
Versions: 1 2 3 4 5 6 7 8 9 10 11 12 13 14 15 16 17 18 19 20 21 22 23 24 25 26 27 28 29 30 31 32 33 34 35 36 37 38 39 40 41 42 43 44 45 46 47 48 49 50

000
ASUS43 KFSD 212302
RWRSD

WEATHER ROUNDUP FOR SOUTH DAKOTA
NATIONAL WEATHER SERVICE SIOUX FALLS SD
600 PM CDT SAT OCT 21 2017

NOTE: "FAIR" INDICATES FEW OR NO CLOUDS BELOW 12,000 FEET WITH NO
SIGNIFICANT WEATHER AND/OR OBSTRUCTIONS TO VISIBILITY.


SDZ001>005-009-010-012>017-220000-
NORTHWEST AND NORTH CENTRAL SOUTH DAKOTA

CITY           SKY/WX    TMP DP  RH WIND       PRES   REMARKS
BUFFALO          N/A     54  21  27 W29G41    29.77R
MOBRIDGE       CLOUDY    55  38  52 NW15G23   29.75R
$$

SDZ012>016-024>037-041>051-057-063-072>074-220000-
SOUTHWEST AND SOUTH CENTRAL SOUTH DAKOTA

CITY           SKY/WX    TMP DP  RH WIND       PRES   REMARKS
RAPID CTY ARPT CLEAR     54  18  24 NW17G26   29.89R
PIERRE         CLOUDY    56  35  45 NW17      29.82R
CUSTER         LGT RAIN  45  11  25 W12G30    29.93R
ELLSWORTH AFB  CLEAR     55  18  23 NW22G28   29.88R
PHILIP         CLOUDY    56  27  32 NW16      29.87R
PINE RIDGE     CLEAR     57  12  17 W21G30    29.92R
SPEARFISH      FAIR      50  18  27 W16       29.91R
WINNER         FAIR      58  32  37 NW23      29.86R
$$

SDZ004>011-016>023-039-040-220000-
NORTHEAST SOUTH DAKOTA

CITY           SKY/WX    TMP DP  RH WIND       PRES   REMARKS
ABERDEEN       CLOUDY    53  42  66 W13       29.75R
WATERTOWN      CLOUDY    49  42  77 W12G22    29.74R
BROOKINGS      CLOUDY    50  41  71 NW16      29.77R
SISSETON         N/A     53  43  68 NW12      29.70R
$$

SDZ017-020-022-023-036>040-048>070-220000-
SOUTHEAST SOUTH DAKOTA

CITY           SKY/WX    TMP DP  RH WIND       PRES   REMARKS
SIOUX FALLS    CLOUDY    53  42  66 NW13      29.79R
HURON          MOCLDY    55  37  50 W16G26    29.79R
CHAMBERLAIN    CLEAR     58  36  43 W13       29.84R
MITCHELL       PTCLDY    56  38  50 W14       29.82R
YANKTON        PTCLDY    54  38  54 W15G23    29.85R
$$

ABBREVIATIONS USED IN REMARKS
   TC - TEMPERATURE IN CELSIUS
  WCI - WIND CHILL INDEX
   HX - HEAT INDEX
  VSB - VISIBILITY





USA.gov is the U.S. government's official web portal to all federal, state and local government web resources and services.